| time (UTC) | temp F | wind direction | speed MPH | gust MPH | rain 1hr in | rain 24hr in | rain mn in | humidity % | barometer mb |
| 20260507004910 | 53 | 67 | 0.0 | 0.0 | 0.00 | 0.01 | 0.00 | 84 | 1012.9 |
| 20260507004410 | 53 | 67 | 0.0 | 0.0 | 0.00 | 0.01 | 0.00 | 84 | 1012.9 |
| 20260507003910 | 53 | 67 | 0.0 | 0.0 | 0.00 | 0.01 | 0.00 | 84 | 1012.9 |
| 20260507003410 | 53 | 67 | 0.0 | 0.0 | 0.00 | 0.01 | 0.00 | 84 | 1012.9 |
| 20260507002911 | 53 | 67 | 0.0 | 0.0 | 0.00 | 0.01 | 0.00 | 84 | 1012.9 |
| 20260507002410 | 53 | 67 | 0.0 | 0.0 | 0.00 | 0.01 | 0.00 | 84 | 1012.9 |
| 20260507001410 | 53 | 67 | 0.0 | 0.0 | 0.00 | 0.01 | 0.00 | 84 | 1012.9 |
| 20260507000910 | 53 | 67 | 0.0 | 0.0 | 0.00 | 0.01 | 0.00 | 84 | 1012.9 |
| 20260507000412 | 53 | 67 | 0.0 | 0.0 | 0.00 | 0.01 | 0.00 | 84 | 1012.9 |
| 20260506234910 | 53 | 67 | 0.0 | 0.0 | 0.00 | 0.01 | 0.00 | 84 | 1012.9 |
| 20260506234410 | 53 | 67 | 0.0 | 0.0 | 0.00 | 0.01 | 0.00 | 84 | 1012.9 |
| 20260506233910 | 53 | 67 | 0.0 | 0.0 | 0.00 | 0.01 | 0.00 | 84 | 1012.9 |
| 20260506233410 | 53 | 67 | 0.0 | 0.0 | 0.00 | 0.01 | 0.00 | 84 | 1012.9 |
| 20260506232911 | 53 | 67 | 0.0 | 0.0 | 0.00 | 0.01 | 0.00 | 84 | 1012.9 |
| 20260506231909 | 53 | 67 | 0.0 | 0.0 | 0.00 | 0.01 | 0.00 | 84 | 1012.9 |
| 20260506231410 | 53 | 67 | 0.0 | 0.0 | 0.00 | 0.01 | 0.00 | 84 | 1012.9 |
| 20260506230911 | 53 | 67 | 0.0 | 0.0 | 0.00 | 0.01 | 0.00 | 84 | 1012.9 |
| 20260506230410 | 53 | 67 | 0.0 | 0.0 | 0.00 | 0.01 | 0.00 | 84 | 1012.9 |
| 20260506225409 | 53 | 67 | 0.0 | 0.0 | 0.00 | 0.01 | 0.00 | 84 | 1012.9 |
| 20260506224909 | 53 | 67 | 0.0 | 0.0 | 0.00 | 0.01 | 0.00 | 84 | 1012.9 |
| 20260506224409 | 53 | 67 | 0.0 | 0.0 | 0.00 | 0.01 | 0.00 | 84 | 1012.9 |
| 20260506223910 | 53 | 67 | 0.0 | 0.0 | 0.00 | 0.01 | 0.00 | 84 | 1012.9 |
| 20260506223410 | 53 | 67 | 0.0 | 0.0 | 0.00 | 0.01 | 0.00 | 84 | 1012.9 |
| 20260506222410 | 53 | 67 | 0.0 | 0.0 | 0.00 | 0.01 | 0.00 | 84 | 1012.9 |
| 20260506221910 | 53 | 67 | 1.0 | 3.0 | 0.00 | 0.01 | 0.00 | 84 | 1012.9 |
| 20260506221410 | 53 | 66 | 1.0 | 5.0 | 0.00 | 0.01 | 0.00 | 84 | 1013.0 |
| 20260506220910 | 54 | 69 | 5.0 | 7.0 | 0.00 | 0.01 | 0.00 | 84 | 1013.1 |
| 20260506220410 | 54 | 82 | 2.0 | 5.0 | 0.00 | 0.01 | 0.00 | 84 | 1013.1 |
| 20260506215910 | 54 | 80 | 3.0 | 7.0 | 0.00 | 0.01 | 0.00 | 83 | 1013.1 |
| 20260506215410 | 54 | 66 | 1.0 | 8.0 | 0.00 | 0.01 | 0.01 | 83 | 1013.1 |
| 20260506214910 | 54 | 79 | 3.0 | 7.0 | 0.00 | 0.01 | 0.01 | 83 | 1013.1 |
| 20260506214410 | 54 | 71 | 2.0 | 6.0 | 0.00 | 0.01 | 0.01 | 83 | 1013.1 |
| 20260506213910 | 54 | 73 | 3.0 | 7.0 | 0.00 | 0.01 | 0.01 | 82 | 1013.1 |
| 20260506212409 | 55 | 79 | 4.0 | 8.0 | 0.00 | 0.01 | 0.01 | 82 | 1013.1 |
| 20260506211910 | 55 | 72 | 3.0 | 7.0 | 0.00 | 0.01 | 0.01 | 82 | 1013.1 |
| 20260506211410 | 55 | 76 | 2.0 | 6.0 | 0.00 | 0.01 | 0.01 | 82 | 1013.1 |
| 20260506210910 | 55 | 76 | 1.0 | 5.0 | 0.00 | 0.01 | 0.01 | 82 | 1013.1 |
| 20260506210410 | 55 | 76 | 2.0 | 5.0 | 0.00 | 0.01 | 0.01 | 82 | 1013.1 |
| 20260506205911 | 55 | 75 | 2.0 | 6.0 | 0.00 | 0.01 | 0.01 | 82 | 1013.1 |
| 20260506205410 | 55 | 62 | 2.0 | 7.0 | 0.00 | 0.01 | 0.01 | 82 | 1013.0 |
| 20260506204910 | 55 | 26 | 3.0 | 8.0 | 0.00 | 0.01 | 0.01 | 83 | 1013.0 |
| 20260506204410 | 54 | 63 | 3.0 | 9.0 | 0.00 | 0.01 | 0.01 | 83 | 1012.9 |
| 20260506203909 | 54 | 74 | 2.0 | 6.0 | 0.00 | 0.01 | 0.01 | 84 | 1012.8 |
| 20260506203410 | 54 | 75 | 2.0 | 7.0 | 0.00 | 0.01 | 0.01 | 83 | 1012.8 |
| 20260506202911 | 54 | 238 | 0.0 | 5.0 | 0.00 | 0.01 | 0.01 | 83 | 1012.8 |
| 20260506202410 | 54 | 238 | 0.0 | 1.0 | 0.00 | 0.01 | 0.01 | 83 | 1012.8 |
| 20260506201910 | 55 | 238 | 0.0 | 1.0 | 0.00 | 0.01 | 0.01 | 83 | 1012.7 |
| 20260506201410 | 55 | 238 | 0.0 | 2.0 | 0.00 | 0.01 | 0.01 | 82 | 1012.7 |
| 20260506200910 | 55 | 238 | 3.0 | 5.0 | 0.00 | 0.01 | 0.01 | 82 | 1012.7 |
| 20260506200410 | 55 | 238 | 3.0 | 5.0 | 0.00 | 0.01 | 0.01 | 81 | 1012.6 |
| 20260506195911 | 56 | 238 | 2.0 | 5.0 | 0.00 | 0.01 | 0.01 | 81 | 1012.6 |
| 20260506195409 | 56 | 238 | 3.0 | 6.0 | 0.00 | 0.01 | 0.01 | 81 | 1012.6 |
| 20260506194410 | 56 | 238 | 5.0 | 7.0 | 0.00 | 0.01 | 0.01 | 80 | 1012.6 |
| 20260506193910 | 56 | 238 | 5.0 | 6.0 | 0.00 | 0.01 | 0.01 | 80 | 1012.5 |
| 20260506193410 | 57 | 238 | 4.0 | 6.0 | 0.00 | 0.01 | 0.01 | 79 | 1012.5 |
| 20260506192911 | 57 | 238 | 5.0 | 6.0 | 0.00 | 0.01 | 0.01 | 79 | 1012.5 |
| 20260506192410 | 57 | 238 | 5.0 | 6.0 | 0.00 | 0.01 | 0.01 | 79 | 1012.4 |
| 20260506191910 | 57 | 238 | 5.0 | 7.0 | 0.00 | 0.01 | 0.01 | 78 | 1012.4 |
| 20260506191410 | 58 | 238 | 5.0 | 6.0 | 0.00 | 0.01 | 0.01 | 78 | 1012.4 |
| 20260506190910 | 58 | 238 | 4.0 | 6.0 | 0.00 | 0.01 | 0.01 | 78 | 1012.3 |
| 20260506190410 | 58 | 238 | 4.0 | 6.0 | 0.00 | 0.01 | 0.01 | 77 | 1012.4 |
| 20260506185911 | 58 | 238 | 2.0 | 6.0 | 0.00 | 0.01 | 0.01 | 77 | 1012.4 |
| 20260506185410 | 58 | 238 | 3.0 | 5.0 | 0.00 | 0.01 | 0.01 | 77 | 1012.3 |
| 20260506184410 | 58 | 238 | 5.0 | 7.0 | 0.00 | 0.01 | 0.01 | 77 | 1012.3 |
| 20260506183410 | 58 | 265 | 3.0 | 7.0 | 0.00 | 0.01 | 0.01 | 77 | 1012.3 |
| 20260506182911 | 58 | 281 | 3.0 | 5.0 | 0.00 | 0.01 | 0.01 | 77 | 1012.2 |
| 20260506182410 | 58 | 281 | 2.0 | 5.0 | 0.00 | 0.01 | 0.01 | 76 | 1012.3 |
| 20260506181910 | 58 | 281 | 2.0 | 5.0 | 0.00 | 0.01 | 0.01 | 77 | 1012.3 |
| 20260506181409 | 58 | 281 | 0.0 | 2.0 | 0.00 | 0.01 | 0.01 | 77 | 1012.2 |
| 20260506180910 | 58 | 281 | 2.0 | 8.0 | 0.00 | 0.01 | 0.01 | 77 | 1012.3 |
| 20260506180410 | 58 | 211 | 2.0 | 7.0 | 0.00 | 0.01 | 0.01 | 79 | 1012.3 |
| 20260506175910 | 58 | 211 | 2.0 | 5.0 | 0.00 | 0.01 | 0.01 | 80 | 1012.3 |
| 20260506175409 | 58 | 211 | 5.0 | 7.0 | 0.00 | 0.01 | 0.01 | 80 | 1012.3 |
| 20260506174909 | 58 | 211 | 5.0 | 6.0 | 0.00 | 0.02 | 0.01 | 81 | 1012.3 |
| 20260506173909 | 58 | 211 | 5.0 | 7.0 | 0.00 | 0.02 | 0.01 | 80 | 1012.4 |
| 20260506173409 | 58 | 211 | 6.0 | 9.0 | 0.00 | 0.03 | 0.01 | 81 | 1012.5 |
| 20260506172911 | 58 | 209 | 6.0 | 9.0 | 0.00 | 0.03 | 0.01 | 82 | 1012.5 |
| 20260506172410 | 58 | 227 | 7.0 | 10.0 | 0.00 | 0.03 | 0.01 | 81 | 1012.4 |
| 20260506171910 | 58 | 236 | 6.0 | 10.0 | 0.00 | 0.03 | 0.01 | 79 | 1012.5 |
| 20260506165910 | 59 | 241 | 7.0 | 12.0 | 0.00 | 0.03 | 0.01 | 78 | 1012.6 |
| 20260506165410 | 59 | 248 | 8.0 | 13.0 | 0.00 | 0.03 | 0.01 | 77 | 1012.6 |
| 20260506164909 | 59 | 246 | 7.0 | 12.0 | 0.00 | 0.03 | 0.01 | 77 | 1012.5 |
| 20260506164409 | 59 | 238 | 9.0 | 14.0 | 0.00 | 0.03 | 0.01 | 76 | 1012.5 |
| 20260506163910 | 60 | 248 | 7.0 | 12.0 | 0.00 | 0.03 | 0.01 | 74 | 1012.6 |
| 20260506163410 | 60 | 230 | 7.0 | 12.0 | 0.00 | 0.03 | 0.01 | 71 | 1012.6 |
| 20260506162910 | 60 | 234 | 8.0 | 12.0 | 0.00 | 0.03 | 0.01 | 71 | 1012.5 |
| 20260506162410 | 61 | 216 | 9.0 | 14.0 | 0.00 | 0.03 | 0.01 | 72 | 1012.5 |
| 20260506161910 | 61 | 202 | 9.0 | 14.0 | 0.00 | 0.03 | 0.01 | 71 | 1012.5 |
| 20260506161410 | 61 | 207 | 9.0 | 14.0 | 0.00 | 0.03 | 0.01 | 72 | 1012.6 |
| 20260506160910 | 61 | 207 | 9.0 | 15.0 | 0.00 | 0.03 | 0.01 | 70 | 1012.6 |
| 20260506160410 | 61 | 208 | 10.0 | 18.0 | 0.00 | 0.03 | 0.01 | 67 | 1012.6 |
| 20260506155410 | 62 | 45 | 0.0 | 1.0 | 0.00 | 0.03 | 0.01 | 65 | 1012.5 |
| 20260506154910 | 62 | 45 | 0.0 | 0.0 | 0.00 | 0.03 | 0.01 | 63 | 1012.5 |
| 20260506154410 | 62 | 45 | 0.0 | 2.0 | 0.00 | 0.03 | 0.01 | 60 | 1012.5 |
| 20260506153909 | 62 | 45 | 2.0 | 3.0 | 0.00 | 0.03 | 0.01 | 59 | 1012.5 |
| 20260506153410 | 63 | 45 | 0.0 | 5.0 | 0.00 | 0.03 | 0.01 | 57 | 1012.6 |
| 20260506152911 | 63 | 45 | 0.0 | 2.0 | 0.00 | 0.03 | 0.01 | 58 | 1012.5 |
| 20260506152409 | 63 | 45 | 0.0 | 2.0 | 0.00 | 0.03 | 0.01 | 56 | 1012.6 |
| 20260506151910 | 64 | 45 | 1.0 | 3.0 | 0.00 | 0.03 | 0.01 | 54 | 1012.6 |
| 20260506150909 | 63 | 45 | 1.0 | 3.0 | 0.00 | 0.03 | 0.01 | 55 | 1012.7 |
| 20260506145911 | 63 | 45 | 2.0 | 5.0 | 0.00 | 0.03 | 0.01 | 58 | 1012.9 |
| 20260506145410 | 63 | 45 | 1.0 | 5.0 | 0.00 | 0.05 | 0.01 | 57 | 1013.0 |
| 20260506144910 | 63 | 45 | 1.0 | 3.0 | 0.00 | 0.07 | 0.01 | 57 | 1013.1 |
| 20260506144410 | 63 | 45 | 0.0 | 3.0 | 0.00 | 0.07 | 0.01 | 56 | 1013.2 |
| 20260506143910 | 63 | 45 | 1.0 | 3.0 | 0.00 | 0.08 | 0.01 | 56 | 1013.3 |
| 20260506143410 | 63 | 45 | 1.0 | 3.0 | 0.00 | 0.08 | 0.01 | 56 | 1013.3 |
| 20260506142410 | 63 | 45 | 0.0 | 3.0 | 0.00 | 0.09 | 0.01 | 54 | 1013.4 |
| 20260506141910 | 63 | 45 | 2.0 | 3.0 | 0.00 | 0.09 | 0.01 | 53 | 1013.5 |
| 20260506141410 | 63 | 45 | 2.0 | 5.0 | 0.00 | 0.09 | 0.01 | 54 | 1013.5 |
| 20260506135410 | 63 | 46 | 3.0 | 6.0 | 0.00 | 0.09 | 0.01 | 54 | 1013.7 |
| 20260506134910 | 63 | 46 | 2.0 | 7.0 | 0.00 | 0.09 | 0.01 | 53 | 1013.7 |
| 20260506134410 | 63 | 46 | 2.0 | 7.0 | 0.00 | 0.09 | 0.01 | 54 | 1013.8 |
| 20260506133411 | 63 | 46 | 3.0 | 7.0 | 0.00 | 0.09 | 0.01 | 55 | 1013.8 |
| 20260506132911 | 62 | 51 | 1.0 | 6.0 | 0.00 | 0.09 | 0.01 | 54 | 1013.9 |
| 20260506132410 | 62 | 52 | 1.0 | 6.0 | 0.00 | 0.09 | 0.01 | 54 | 1013.9 |
| 20260506131910 | 63 | 73 | 1.0 | 6.0 | 0.00 | 0.09 | 0.01 | 56 | 1013.9 |
| 20260506131410 | 63 | 326 | 1.0 | 5.0 | 0.00 | 0.09 | 0.01 | 59 | 1013.9 |
| 20260506130910 | 64 | 326 | 6.0 | 10.0 | 0.00 | 0.09 | 0.01 | 56 | 1014.0 |
| 20260506130410 | 63 | 51 | 1.0 | 5.0 | 0.00 | 0.09 | 0.01 | 56 | 1014.1 |
| 20260506125910 | 63 | 50 | 1.0 | 8.0 | 0.00 | 0.09 | 0.01 | 54 | 1014.2 |
| 20260506125409 | 63 | 34 | 2.0 | 10.0 | 0.00 | 0.09 | 0.01 | 56 | 1014.1 |
| 20260506124909 | 63 | 355 | 7.0 | 12.0 | 0.00 | 0.09 | 0.01 | 53 | 1014.2 |
| 20260506124410 | 63 | 26 | 2.0 | 10.0 | 0.00 | 0.09 | 0.01 | 53 | 1014.2 |
| 20260506123910 | 63 | 49 | 3.0 | 10.0 | 0.00 | 0.09 | 0.01 | 51 | 1014.2 |
| 20260506123410 | 63 | 32 | 7.0 | 14.0 | 0.00 | 0.09 | 0.01 | 56 | 1014.3 |
| 20260506122911 | 63 | 44 | 3.0 | 8.0 | 0.00 | 0.09 | 0.01 | 60 | 1014.3 |
| 20260506122409 | 62 | 78 | 4.0 | 10.0 | 0.00 | 0.09 | 0.01 | 59 | 1014.4 |
| 20260506121411 | 63 | 58 | 3.0 | 8.0 | 0.00 | 0.09 | 0.01 | 57 | 1014.5 |
| 20260506120911 | 62 | 33 | 5.0 | 9.0 | 0.00 | 0.09 | 0.01 | 62 | 1014.6 |
| 20260506120410 | 62 | 27 | 7.0 | 12.0 | 0.00 | 0.09 | 0.01 | 56 | 1014.6 |
| 20260506115910 | 63 | 64 | 3.0 | 10.0 | 0.00 | 0.09 | 0.01 | 59 | 1014.6 |
| 20260506115410 | 62 | 46 | 3.0 | 7.0 | 0.00 | 0.09 | 0.01 | 60 | 1014.7 |
| 20260506114910 | 62 | 63 | 4.0 | 10.0 | 0.00 | 0.09 | 0.01 | 58 | 1014.9 |
| 20260506114409 | 61 | 41 | 1.0 | 6.0 | 0.00 | 0.09 | 0.01 | 60 | 1014.9 |
| 20260506113910 | 61 | 41 | 3.0 | 7.0 | 0.00 | 0.09 | 0.01 | 58 | 1015.0 |
| 20260506113410 | 60 | 46 | 2.0 | 7.0 | 0.00 | 0.09 | 0.01 | 62 | 1015.1 |
| 20260506112911 | 60 | 39 | 5.0 | 10.0 | 0.00 | 0.09 | 0.01 | 65 | 1015.1 |
| 20260506111410 | 59 | 46 | 3.0 | 7.0 | 0.00 | 0.09 | 0.01 | 66 | 1015.2 |
| 20260506110910 | 59 | 49 | 3.0 | 6.0 | 0.00 | 0.09 | 0.01 | 66 | 1015.3 |
| 20260506110410 | 59 | 50 | 5.0 | 7.0 | 0.00 | 0.09 | 0.01 | 65 | 1015.4 |
| 20260506105911 | 59 | 39 | 5.0 | 9.0 | 0.00 | 0.09 | 0.01 | 64 | 1015.4 |
| 20260506105410 | 60 | 32 | 5.0 | 10.0 | 0.00 | 0.09 | 0.01 | 65 | 1015.3 |
| 20260506104910 | 59 | 47 | 5.0 | 7.0 | 0.00 | 0.09 | 0.01 | 65 | 1015.4 |
| 20260506103910 | 59 | 34 | 6.0 | 10.0 | 0.00 | 0.09 | 0.01 | 66 | 1015.4 |
| 20260506102911 | 59 | 57 | 3.0 | 8.0 | 0.00 | 0.09 | 0.01 | 68 | 1015.5 |
| 20260506102410 | 59 | 47 | 2.0 | 7.0 | 0.00 | 0.09 | 0.01 | 70 | 1015.6 |
| 20260506101910 | 59 | 28 | 6.0 | 9.0 | 0.00 | 0.09 | 0.01 | 71 | 1015.6 |
| 20260506101410 | 58 | 38 | 2.0 | 7.0 | 0.00 | 0.09 | 0.01 | 72 | 1015.6 |
| 20260506100910 | 58 | 36 | 6.0 | 8.0 | 0.00 | 0.09 | 0.01 | 73 | 1015.6 |
| 20260506100410 | 58 | 47 | 3.0 | 6.0 | 0.00 | 0.09 | 0.01 | 71 | 1015.6 |
| 20260506095911 | 57 | 40 | 0.0 | 2.0 | 0.00 | 0.09 | 0.01 | 75 | 1015.7 |
| 20260506095410 | 57 | 40 | 1.0 | 7.0 | 0.00 | 0.09 | 0.01 | 72 | 1015.8 |
| 20260506094910 | 58 | 49 | 2.0 | 6.0 | 0.00 | 0.09 | 0.01 | 76 | 1015.8 |
| 20260506094410 | 58 | 30 | 5.0 | 8.0 | 0.00 | 0.09 | 0.01 | 76 | 1015.8 |
| 20260506093910 | 57 | 41 | 3.0 | 8.0 | 0.00 | 0.09 | 0.01 | 75 | 1015.9 |
| 20260506093410 | 57 | 35 | 5.0 | 7.0 | 0.00 | 0.09 | 0.01 | 77 | 1015.9 |
| 20260506092911 | 57 | 34 | 2.0 | 6.0 | 0.00 | 0.09 | 0.01 | 75 | 1015.9 |
| 20260506092410 | 56 | 35 | 4.0 | 7.0 | 0.00 | 0.09 | 0.01 | 78 | 1016.0 |
| 20260506091910 | 56 | 68 | 2.0 | 7.0 | 0.00 | 0.09 | 0.01 | 76 | 1016.0 |
| 20260506090910 | 55 | 41 | 1.0 | 5.0 | 0.00 | 0.09 | 0.01 | 79 | 1016.0 |
| 20260506090410 | 55 | 41 | 2.0 | 7.0 | 0.00 | 0.09 | 0.01 | 79 | 1016.0 |
| 20260506085911 | 56 | 41 | 3.0 | 7.0 | 0.00 | 0.09 | 0.01 | 79 | 1016.1 |
| 20260506085410 | 55 | 41 | 1.0 | 3.0 | 0.00 | 0.09 | 0.01 | 79 | 1016.1 |
| 20260506084910 | 55 | 41 | 2.0 | 6.0 | 0.00 | 0.09 | 0.01 | 80 | 1016.1 |
| 20260506084409 | 55 | 41 | 1.0 | 3.0 | 0.00 | 0.09 | 0.01 | 81 | 1016.1 |
| 20260506083910 | 55 | 41 | 1.0 | 5.0 | 0.00 | 0.09 | 0.01 | 85 | 1016.1 |
| 20260506083410 | 54 | 41 | 1.0 | 5.0 | 0.00 | 0.09 | 0.01 | 86 | 1016.0 |
| 20260506082911 | 53 | 41 | 2.0 | 5.0 | 0.00 | 0.09 | 0.01 | 88 | 1016.0 |
| 20260506082410 | 53 | 41 | 3.0 | 7.0 | 0.00 | 0.09 | 0.01 | 89 | 1016.0 |
| 20260506081910 | 52 | 180 | 1.0 | 3.0 | 0.00 | 0.09 | 0.01 | 91 | 1016.0 |
| 20260506080910 | 52 | 180 | 1.0 | 3.0 | 0.00 | 0.09 | 0.01 | 92 | 1016.1 |
| 20260506080410 | 51 | 180 | 1.0 | 3.0 | 0.00 | 0.09 | 0.01 | 93 | 1016.1 |
| 20260506073410 | 49 | 182 | 2.0 | 5.0 | 0.00 | 0.09 | 0.01 | 100 | 1016.1 |
| 20260506072911 | 48 | 183 | 2.0 | 5.0 | 0.00 | 0.09 | 0.01 | 100 | 1016.2 |
| 20260506072411 | 48 | 184 | 3.0 | 5.0 | 0.00 | 0.09 | 0.01 | 100 | 1016.1 |
| 20260506071910 | 48 | 187 | 0.0 | 3.0 | 0.00 | 0.09 | 0.01 | 100 | 1016.1 |
| 20260506071410 | 48 | 194 | 0.0 | 2.0 | 0.00 | 0.09 | 0.01 | 100 | 1016.2 |
| 20260506070410 | 47 | 194 | 0.0 | 3.0 | 0.00 | 0.09 | 0.01 | 100 | 1016.2 |
| 20260506062410 | 43 | 194 | 0.0 | 2.0 | 0.01 | 0.09 | 0.01 | 99 | 1016.0 |
| 20260506061910 | 43 | 194 | 0.0 | 0.0 | 0.01 | 0.09 | 0.01 | 99 | 1016.0 |
| 20260506061410 | 43 | 194 | 0.0 | 0.0 | 0.01 | 0.09 | 0.01 | 99 | 1015.9 |
| 20260506060910 | 43 | 194 | 0.0 | 0.0 | 0.01 | 0.09 | 0.01 | 99 | 1016.0 |
| 20260506060409 | 43 | 194 | 0.0 | 1.0 | 0.01 | 0.09 | 0.01 | 99 | 1016.1 |
| 20260506050910 | 44 | 194 | 1.0 | 3.0 | 0.00 | 0.09 | 0.00 | 99 | 1015.9 |
| 20260506050413 | 44 | 194 | 1.0 | 3.0 | 0.00 | 0.09 | 0.00 | 99 | 1015.8 |
| 20260506044910 | 45 | 194 | 1.0 | 2.0 | 0.00 | 0.09 | 0.00 | 99 | 1015.8 |
| 20260506043911 | 45 | 194 | 0.0 | 0.0 | 0.00 | 0.09 | 0.00 | 99 | 1015.7 |
| 20260506043410 | 45 | 194 | 0.0 | 0.0 | 0.00 | 0.09 | 0.00 | 99 | 1015.7 |
| 20260506042911 | 45 | 194 | 2.0 | 3.0 | 0.00 | 0.09 | 0.00 | 99 | 1015.7 |
| 20260506042410 | 46 | 194 | 2.0 | 3.0 | 0.00 | 0.09 | 0.00 | 99 | 1015.8 |
| 20260506041910 | 46 | 194 | 2.0 | 3.0 | 0.00 | 0.09 | 0.00 | 99 | 1015.7 |
| 20260506041410 | 46 | 194 | 1.0 | 3.0 | 0.00 | 0.09 | 0.00 | 99 | 1015.8 |
| 20260506040910 | 46 | 194 | 1.0 | 3.0 | 0.00 | 0.09 | 0.00 | 99 | 1015.9 |
| 20260506040410 | 46 | 194 | 1.0 | 5.0 | 0.00 | 0.09 | 0.00 | 99 | 1015.9 |
| 20260506035911 | 46 | 197 | 4.0 | 6.0 | 0.00 | 0.09 | 0.00 | 99 | 1015.8 |
| 20260506034910 | 47 | 197 | 1.0 | 3.0 | 0.00 | 0.09 | 0.00 | 99 | 1015.9 |
| 20260506034410 | 47 | 197 | 1.0 | 3.0 | 0.00 | 0.09 | 0.00 | 99 | 1015.9 |
| 20260506033910 | 47 | 197 | 1.0 | 2.0 | 0.00 | 0.09 | 0.00 | 99 | 1015.9 |
| 20260506033410 | 47 | 197 | 1.0 | 3.0 | 0.00 | 0.09 | 0.00 | 99 | 1015.9 |
| 20260506032911 | 47 | 197 | 2.0 | 3.0 | 0.00 | 0.09 | 0.00 | 98 | 1016.0 |
| 20260506032410 | 47 | 197 | 2.0 | 3.0 | 0.00 | 0.09 | 0.00 | 98 | 1015.9 |
| 20260506031910 | 47 | 197 | 0.0 | 3.0 | 0.00 | 0.09 | 0.00 | 98 | 1015.9 |
| 20260506031410 | 48 | 197 | 0.0 | 2.0 | 0.00 | 0.09 | 0.00 | 98 | 1015.9 |
| 20260506030910 | 48 | 197 | 0.0 | 2.0 | 0.00 | 0.09 | 0.00 | 99 | 1016.0 |
| 20260506030411 | 48 | 197 | 0.0 | 2.0 | 0.00 | 0.09 | 0.00 | 98 | 1016.0 |
| 20260506025911 | 48 | 197 | 0.0 | 2.0 | 0.00 | 0.09 | 0.00 | 98 | 1016.0 |
| 20260506025410 | 48 | 197 | 0.0 | 0.0 | 0.00 | 0.09 | 0.00 | 98 | 1016.0 |
| 20260506024910 | 48 | 197 | 0.0 | 3.0 | 0.00 | 0.09 | 0.00 | 98 | 1016.0 |
| 20260506023910 | 49 | 197 | 0.0 | 0.0 | 0.00 | 0.09 | 0.00 | 99 | 1015.9 |
| 20260506022411 | 49 | 197 | 0.0 | 0.0 | 0.00 | 0.09 | 0.00 | 99 | 1016.1 |
| 20260506021410 | 49 | 197 | 0.0 | 0.0 | 0.00 | 0.09 | 0.00 | 99 | 1016.1 |
| 20260506015911 | 49 | 197 | 0.0 | 2.0 | 0.00 | 0.09 | 0.00 | 98 | 1016.2 |
| 20260506015410 | 49 | 197 | 0.0 | 2.0 | 0.00 | 0.09 | 0.00 | 98 | 1016.3 |
| 20260506014910 | 49 | 197 | 1.0 | 2.0 | 0.00 | 0.09 | 0.00 | 98 | 1016.3 |
| 20260506014410 | 49 | 197 | 0.0 | 1.0 | 0.00 | 0.09 | 0.00 | 98 | 1016.4 |
| 20260506013910 | 49 | 197 | 0.0 | 0.0 | 0.00 | 0.09 | 0.00 | 98 | 1016.4 |
| 20260506013410 | 49 | 197 | 0.0 | 0.0 | 0.00 | 0.09 | 0.00 | 98 | 1016.5 |
| 20260506012911 | 49 | 197 | 0.0 | 2.0 | 0.00 | 0.09 | 0.00 | 98 | 1016.5 |
| 20260506012410 | 49 | 197 | 2.0 | 2.0 | 0.00 | 0.09 | 0.00 | 98 | 1016.6 |
| 20260506011910 | 49 | 197 | 0.0 | 2.0 | 0.00 | 0.09 | 0.00 | 98 | 1016.6 |
| 20260506011410 | 50 | 197 | 0.0 | 1.0 | 0.00 | 0.09 | 0.00 | 98 | 1016.6 |
| 20260506010910 | 50 | 197 | 0.0 | 0.0 | 0.00 | 0.09 | 0.00 | 98 | 1016.6 |
| 20260506010411 | 50 | 197 | 0.0 | 0.0 | 0.00 | 0.09 | 0.00 | 98 | 1016.7 |
| 20260506005911 | 50 | 197 | 0.0 | 0.0 | 0.00 | 0.09 | 0.00 | 98 | 1016.7 |
| 20260506005410 | 50 | 197 | 0.0 | 0.0 | 0.00 | 0.09 | 0.00 | 98 | 1016.7 |